This is the latest recevied weather packets stored in our database for station/object K4CRS-13. If no packets are shown the sender has not sent any weather packets the latest 10 day(s).
| Time | Temp. | Humidity | Pressure | Rain* | Wind** | Luminosity | Snow |
|---|---|---|---|---|---|---|---|
| 1778070727 | 20° C | 94% | 1047.1 hPa | 1.27 mm | - | 3 W/m² | - |
| 1778070423 | 20° C | 93% | 1046.6 hPa | 3.05 mm | - | 8 W/m² | - |
| 1778070121 | 20° C | 93% | 1046.6 hPa | 1.78 mm | - | 9 W/m² | - |
| 1778069819 | 20° C | 92% | 1047 hPa | 0 mm | - | 3 W/m² | - |
| 1778069514 | 20° C | 92% | 1047.1 hPa | 0 mm | - | 4 W/m² | - |
| 1778069213 | 20° C | 92% | 1046.5 hPa | 0 mm | - | 6 W/m² | - |
| 1778068910 | 20° C | 92% | 1046.8 hPa | 0 mm | - | 6 W/m² | - |
| 1778068608 | 20° C | 92% | 1046.5 hPa | 0 mm | - | 5 W/m² | - |
| 1778068306 | 20° C | 92% | 1046.6 hPa | 0 mm | - | 4 W/m² | - |
| 1778068003 | 20° C | 92% | 1046.5 hPa | 0 mm | - | 2 W/m² | - |
| 1778067701 | 20° C | 92% | 1046.4 hPa | 0 mm | - | 3 W/m² | - |
| 1778067400 | 20° C | 92% | 1046 hPa | 0 mm | - | 2 W/m² | - |
| 1778067096 | 20° C | 91% | 1045.9 hPa | 0 mm | - | 3 W/m² | - |
| 1778066792 | 20° C | 91% | 1045.7 hPa | 0 mm | - | 2 W/m² | - |
| 1778066490 | 20° C | 91% | 1045.7 hPa | 0 mm | - | 1 W/m² | - |
| 1778066187 | 20° C | 91% | 1045.6 hPa | 0 mm | - | 1 W/m² | - |
| 1778065885 | 20° C | 91% | 1045.7 hPa | 0 mm | - | 1 W/m² | - |
| 1778065582 | 20° C | 91% | 1045.5 hPa | 0 mm | - | 0 W/m² | - |
| 1778065280 | 20° C | 91% | 1045.5 hPa | 0 mm | - | 0 W/m² | - |
| 1778064976 | 20° C | 91% | 1045.7 hPa | 0 mm | - | 0 W/m² | - |
| 1778064673 | 20° C | 90% | 1045.5 hPa | 0 mm | - | 0 W/m² | - |
| 1778064371 | 20° C | 90% | 1045.2 hPa | 0 mm | - | 0 W/m² | - |
| 1778064068 | 20° C | 90% | 1045.5 hPa | 0 mm | - | 0 W/m² | - |
| 1778063765 | 20° C | 90% | 1045.5 hPa | 0 mm | - | 0 W/m² | - |
| 1778063462 | 20° C | 90% | 1045.3 hPa | 0 mm | - | 0 W/m² | - |
* Rain latest hour (hover to see other rain measurements)
** Current wind speed in m/s (hover to see current wind gust speed)